Weather History for KFUL - November, 2012

Change the Weather History Date:

Monday, November 5, 2012

  Actual Average Record
Temperature  
Mean Temperature 77 °F 64 °F  
Max Temperature 96 °F 75 °F 96 °F (2012)
Min Temperature 57 °F 52 °F 43 °F (2011)
Degree Days  
Heating Degree Days 0 3  
Month to date heating degree days 0 11  
Since 1 July heating degree days 16 35  
Cooling Degree Days 12 1  
Month to date cooling degree days 27 7  
Year to date cooling degree days 2016 1238  
Growing Degree Days 26 (Base 50)    
Moisture  
Dew Point 40 °F    
Average Humidity 34    
Maximum Humidity 57    
Minimum Humidity 10    
Precipitation  
Precipitation 0.00 in 0.03 in 0.01 in (2001)
Month to date precipitation 0.00 0.24  
Year to date precipitation 3.69 10.97  
Since 1 July precipitation 0.16 1.32  
Snow  
Snow 0.00 in - - ()
Month to date snowfall 0.0  
Year to date snowfall 0.0  
Since 1 July snowfall 0.0  
Snow Depth 0.00 in    
Sea Level Pressure  
Sea Level Pressure 30.01 in    
Wind  
Wind Speed 2 mph (South)    
Max Wind Speed 8 mph    
Max Gust Speed 13 mph    
Visibility 10 miles    
Events      
T = Trace of Precipitation, MM = Missing Value Source: NWS Daily Summary

Daily Weather History Graph

Daily Weather History Graph

Search for Another Location

Airport or City:

Trip Planner

Search our weather history database for the weather conditions in past years. The results will help you decide how hot, cold, wet, or windy it might be!

Date:

Astronomy

Nov. 05, 2012 Rise Set
Actual Time 6:15 AM PST 4:55 PM PST
Civil Twilight 5:49 AM PST 5:21 PM PST
Nautical Twilight 5:19 AM PST 5:50 PM PST
Astronomical Twilight 4:50 AM PST 6:20 PM PST
Moon 10:36 PM PST (11/5) 11:37 AM PST (11/5)
Length of Visible Light 11h 31m
Length of Day
10h 39m
Waning Gibbous, 62% of the Moon is Illuminated
Nov 5
Waning Gibbous
Nov 6
Last Quarter
Nov 13
New
Nov 20
First Quarter
Nov 28
Full

Hourly Weather History & Observations

Time (PST) Temp. Dew Point Humidity Pressure Visibility Wind Dir Wind Speed Gust Speed Precip Events Conditions
12:53 AM 62.1 °F 42.1 °F 48% 30.03 in 10.0 mi Calm Calm - N/A   Clear
1:53 AM 62.1 °F 39.0 °F 43% 30.03 in 10.0 mi Calm Calm - N/A   Clear
2:53 AM 60.1 °F 42.1 °F 51% 30.01 in 10.0 mi Calm Calm - N/A   Clear
4:53 AM 59.0 °F 41.0 °F 51% 30.02 in 10.0 mi Calm Calm - N/A   Clear
5:53 AM 57.9 °F 42.1 °F 56% 30.03 in 10.0 mi Calm Calm - N/A   Clear
6:53 AM 62.1 °F 42.1 °F 48% 30.04 in 10.0 mi Calm Calm - N/A   Clear
7:53 AM 72.0 °F 43.0 °F 35% 30.05 in 10.0 mi Calm Calm - N/A   Clear
8:53 AM 80.1 °F 41.0 °F 25% 30.05 in 10.0 mi Calm Calm - N/A   Clear
9:53 AM 87.1 °F 39.9 °F 19% 30.04 in 10.0 mi NNW 3.5 mph - N/A   Clear
10:53 AM 93.0 °F 33.1 °F 12% 30.03 in 10.0 mi Calm Calm - N/A   Clear
11:53 AM 95.0 °F 35.1 °F 12% 30.00 in 10.0 mi Calm Calm - N/A   Clear
12:53 PM 95.0 °F 30.9 °F 10% 29.98 in 10.0 mi Variable 5.8 mph - N/A   Clear
1:53 PM 93.9 °F 37.9 °F 14% 29.96 in 10.0 mi SSW 6.9 mph - N/A   Clear
2:53 PM 93.9 °F 28.9 °F 10% 29.96 in 10.0 mi SSW 6.9 mph - N/A   Clear
3:53 PM 90.0 °F 36.0 °F 15% 29.96 in 10.0 mi South 4.6 mph - N/A   Clear
4:53 PM 82.9 °F 43.0 °F 24% 29.97 in 10.0 mi South 4.6 mph - N/A   Clear
5:53 PM 79.0 °F 46.9 °F 32% 29.99 in 10.0 mi Calm Calm - N/A   Clear
6:53 PM 75.0 °F 46.9 °F 37% 30.00 in 10.0 mi Calm Calm - N/A   Clear
7:53 PM 71.1 °F 46.0 °F 41% 30.01 in 10.0 mi Calm Calm - N/A   Clear
8:53 PM 71.1 °F 41.0 °F 34% 30.01 in 10.0 mi East 3.5 mph - N/A   Clear
9:53 PM 70.0 °F 42.1 °F 36% 30.02 in 10.0 mi ESE 3.5 mph - N/A   Clear
10:53 PM 66.9 °F 42.1 °F 40% 30.02 in 10.0 mi Calm Calm - N/A   Clear
11:53 PM 64.0 °F 46.0 °F 52% 30.03 in 10.0 mi Calm Calm - N/A   Clear